DW1028 Weather Reports


time (UTC)temp
F
wind
direction
speed
knots
gust
knots
rain 1hr
in
rain 24hr
in
rain mn
in
humidity
%
barometer
mb
20260506044553 67 275 4.3 6.1 0.00 0.00 0.00 52 1013.2
20260506043052 67 0 0.0 2.6 0.00 0.00 0.00 52 1013.1
20260506041551 67 302 0.0 2.6 0.00 0.00 0.00 50 1013.0
20260506040054 67 284 2.6 5.2 0.00 0.00 0.00 51 1012.8
20260506034602 67 355 1.7 4.3 0.00 0.00 0.00 53 1012.6
20260506033045 68 327 2.6 4.3 0.00 0.00 0.00 51 1012.5
20260506031550 70 348 3.5 5.2 0.00 0.00 0.00 48 1012.3
20260506030053 71 337 2.6 4.3 0.00 0.00 0.00 48 1012.3
20260506024607 74 329 1.7 4.3 0.00 0.00 0.00 43 1012.1
20260506023048 76 50 0.9 7.0 0.00 0.00 0.00 40 1012.0
20260506021552 77 5 2.6 5.2 0.00 0.00 0.00 35 1011.9
20260506020050 78 0 0.0 3.5 0.00 0.00 0.00 36 1011.8
20260506014554 78 11 2.6 7.0 0.00 0.00 0.00 36 1011.7
20260506013102 78 10 2.6 4.3 0.00 0.00 0.00 35 1011.8
20260506011603 78 39 5.2 9.6 0.00 0.00 0.00 35 1011.8
20260506010047 78 16 5.2 7.8 0.00 0.00 0.00 35 1011.7
20260506004555 78 55 7.0 11.3 0.00 0.00 0.00 35 1011.8
20260506003048 78 331 1.7 8.7 0.00 0.00 0.00 33 1011.7
20260506001553 78 24 6.1 11.3 0.00 0.00 0.00 34 1011.8
20260506000051 79 65 4.3 9.6 0.00 0.00 0.00 32 1011.8
20260505234552 79 39 5.2 13.9 0.00 0.00 0.00 33 1011.9
20260505233050 78 318 3.5 9.6 0.00 0.00 0.00 34 1011.9
20260505231547 79 338 4.3 10.4 0.00 0.00 0.00 34 1012.0
20260505230057 78 15 2.6 11.3 0.00 0.00 0.00 34 1012.0
20260505224552 78 57 8.7 12.2 0.00 0.00 0.00 33 1012.1
20260505223107 78 45 3.5 12.2 0.00 0.00 0.00 34 1012.2
20260505221549 78 321 4.3 8.7 0.00 0.00 0.00 35 1012.2
20260505220051 77 46 3.5 7.8 0.00 0.00 0.00 36 1012.5
20260505214555 77 59 5.2 12.2 0.00 0.00 0.00 39 1012.5
20260505213056 76 28 6.1 12.2 0.00 0.00 0.00 37 1012.5
20260505211551 76 315 4.3 11.3 0.00 0.00 0.00 38 1012.6
20260505210050 76 37 4.3 11.3 0.00 0.00 0.00 37 1012.5
20260505204558 76 18 4.3 12.2 0.00 0.00 0.00 37 1012.7
20260505203057 74 344 4.3 10.4 0.00 0.00 0.00 41 1012.6
20260505201553 75 335 3.5 8.7 0.00 0.00 0.00 42 1012.7
20260505200054 74 323 3.5 8.7 0.00 0.00 0.00 43 1012.7
20260505194603 74 82 2.6 8.7 0.00 0.00 0.00 43 1012.8
20260505193049 73 74 1.7 4.3 0.00 0.00 0.00 44 1012.7
20260505191550 72 227 0.9 7.0 0.00 0.00 0.00 46 1012.8
20260505190050 70 338 3.5 8.7 0.00 0.00 0.00 49 1012.9
20260505184555 70 277 3.5 7.8 0.00 0.00 0.00 49 1013.1
20260505183058 69 297 5.2 8.7 0.00 0.00 0.00 53 1013.1
20260505181549 68 346 4.3 9.6 0.00 0.00 0.00 52 1013.1
20260505180050 68 297 3.5 8.7 0.00 0.00 0.00 56 1012.9
20260505174551 67 297 3.5 7.8 0.00 0.00 0.00 55 1012.9
20260505173054 67 263 4.3 11.3 0.00 0.00 0.00 56 1012.9
20260505171546 66 284 3.5 10.4 0.00 0.00 0.00 57 1012.8
20260505170047 66 191 3.5 8.7 0.00 0.00 0.00 60 1012.6
20260505164601 64 219 4.3 9.6 0.00 0.00 0.00 61 1012.7
20260505163100 64 254 3.5 9.6 0.00 0.00 0.00 62 1012.7
20260505161555 63 220 5.2 8.7 0.00 0.00 0.00 64 1012.8
20260505153108 61 190 3.5 6.1 0.00 0.00 0.00 67 1012.4
20260505151600 61 240 3.5 6.1 0.00 0.00 0.00 67 1012.3
20260505124552 57 253 0.9 5.2 0.00 0.00 0.00 73 1011.1
20260505123050 57 232 3.5 7.0 0.00 0.00 0.00 72 1010.9
20260505121550 57 252 2.6 4.3 0.00 0.00 0.00 72 1011.0
20260505120054 58 252 2.6 6.1 0.00 0.00 0.00 72 1010.8
20260505114552 58 221 4.3 7.8 0.00 0.00 0.00 71 1010.7
20260505113053 59 219 3.5 5.2 0.00 0.00 0.00 70 1010.8
20260505111556 59 196 3.5 7.0 0.00 0.00 0.00 70 1010.7
20260505101550 60 213 2.6 7.0 0.00 0.00 0.00 67 1010.3
20260505100052 60 213 5.2 7.0 0.00 0.00 0.00 67 1010.1
20260505094551 60 208 5.2 7.0 0.00 0.00 0.00 67 1010.2
20260505093050 60 194 2.6 7.0 0.00 0.00 0.00 67 1010.2
20260505091558 60 196 4.3 7.8 0.00 0.00 0.00 66 1010.0
20260505090059 61 232 6.1 8.7 0.00 0.00 0.00 67 1009.9
20260505084551 60 248 3.5 6.1 0.00 0.00 0.00 68 1010.1
20260505083053 61 232 2.6 11.3 0.00 0.00 0.00 66 1010.1
20260505081601 62 209 7.8 10.4 0.00 0.00 0.00 65 1010.0
20260505080056 62 257 6.1 14.8 0.00 0.00 0.00 64 1010.0
20260505074607 62 247 6.1 9.6 0.00 0.00 0.00 66 1009.9
20260505073055 62 242 6.1 11.3 0.00 0.00 0.00 64 1009.9
20260505071549 62 224 3.5 6.1 0.00 0.00 0.00 63 1009.8
20260505070052 63 250 4.3 7.8 0.00 0.00 0.00 62 1009.7
20260505064556 63 237 6.1 12.2 0.00 0.00 0.00 62 1009.6
20260505063059 63 259 7.8 11.3 0.00 0.00 0.00 61 1009.6
20260505061617 63 250 6.1 12.2 0.00 0.00 0.00 60 1009.5
20260505060055 64 271 6.1 9.6 0.00 0.00 0.00 58 1009.3
20260505054603 65 263 4.3 10.4 0.00 0.00 0.00 56 1009.5
20260505053052 66 151 6.1 13.9 0.00 0.00 0.00 55 1009.4
20260505051549 66 211 5.2 15.6 0.00 0.00 0.00 54 1009.3